Location: Gleizolles
(44.4833°N, 6.7667°E)
Time: 03:15:57
(UTC+00:00)

H-2A R/B - Pass Details

Date: 09 April 2020
Orbit: 734 x 836 km, 98.2° (Epoch: 29 May)

Event Time Altitude Azimuth Distance (km) Brightness Sun altitude
Rises 19:55:58 0° 194° (SSW) 3,290 5.1 -18.2°
Reaches altitude 10° 19:58:37 10° 206° (SSW) 2,347 4.4 -18.6°
Maximum altitude 20:03:03 29° 265° (W) 1,410 3.9 -19.2°
Drops below altitude 10° 20:07:25 10° 325° (NW) 2,305 5.5 -19.9°
Sets 20:10:01 0° 336° (NNW) 3,221 6.2 -20.3°
